Location: *
(38.9800°N, 16.0500°E)
Time: 06:50:45
(UTC+00:00)

STARLINK-1065 - Pass Details

Date: 07 April 2020
Orbit: 548 x 549 km, 53.0° (Epoch: 25 May)

Event Time Altitude Azimuth Distance (km) Brightness Sun altitude
Exits shadow 02:44:40 61° 242° (WSW) 622 3.5 -20.3°
Maximum altitude 02:45:20 83° 319° (NW) 557 3.5 -20.2°
Drops below altitude 10° 02:49:29 10° 48° (NE) 1,825 7.4 -19.5°
Sets 02:51:43 0° 49° (NE) 2,721 8.6 -19.1°
